Prescott, AZ

12:39 PM MST on January 18, 2017 (GMT -0700)
Love

Weather History for KPRC - November, 2012

Change the Weather History Date:

Tuesday, November 20, 2012

  Actual Average Record
Temperature  
Mean Temperature 47 °F 44 °F  
Max Temperature 66 °F 59 °F 75 °F (1995)
Min Temperature 28 °F 30 °F 10 °F (1956)
Degree Days  
Heating Degree Days 18    
Month to date heating degree days  
Since 1 July heating degree days  
Cooling Degree Days 0    
Month to date cooling degree days  
Year to date cooling degree days  
Moisture  
Dew Point 25 °F    
Average Humidity 50    
Maximum Humidity 89    
Minimum Humidity 14    
Precipitation  
Precipitation 0.00 in 0.03 in 0.56 in (2016)
Month to date precipitation 0.59  
Year to date precipitation 12.68  
Sea Level Pressure  
Sea Level Pressure 30.14 in    
Wind  
Wind Speed 6 mph (SSE)    
Max Wind Speed 9 mph    
Max Gust Speed -    
Visibility 10 miles    
Events      
T = Trace of Precipitation, MM = Missing Value Source: NWS Daily Summary

Daily Weather History Graph

Daily Weather History Graph

Search for Another Location

Airport or City:

Trip Planner

Search our weather history database for the weather conditions in past years. The results will help you decide how hot, cold, wet, or windy it might be!

Date:

Astronomy

Nov. 20, 2012 Rise Set
Actual Time 7:08 AM MST 5:21 PM MST
Civil Twilight 6:41 AM MST 5:48 PM MST
Nautical Twilight 6:11 AM MST 6:19 PM MST
Astronomical Twilight 5:40 AM MST 6:49 PM MST
Moon 12:53 PM MST (11/20) No Moon Set
Length of Visible Light 11h 07m
Length of Day
10h 13m
First Quarter, 52% of the Moon is Illuminated
Nov 20
First Quarter
Nov 28
Full
Dec 6
Last Quarter
Dec 13
New
Dec 19
First Quarter

Hourly Weather History & Observations

Time (MST) Temp. Windchill Dew Point Humidity Pressure Visibility Wind Dir Wind Speed Gust Speed Precip Events Conditions
12:53 AM 37.9 °F 31.5 °F 28.9 °F 70% 30.19 in 10.0 mi SSW 9.2 mph - N/A   Clear
1:53 AM 37.0 °F 32.4 °F 28.9 °F 73% 30.17 in 10.0 mi South 5.8 mph - N/A   Clear
2:53 AM 37.0 °F - 28.0 °F 70% 30.17 in 10.0 mi North - - N/A   Clear
3:53 AM 35.1 °F 32.2 °F 28.0 °F 76% 30.17 in 10.0 mi SW 3.5 mph - N/A   Clear
4:53 AM 32.0 °F 26.4 °F 27.0 °F 82% 30.18 in 10.0 mi South 5.8 mph - N/A   Clear
5:53 AM 32.0 °F - 26.1 °F 79% 30.20 in 10.0 mi Calm Calm - N/A   Clear
6:53 AM 28.9 °F 25.2 °F 26.1 °F 89% 30.24 in 10.0 mi South 3.5 mph - N/A   Clear
7:53 AM 33.1 °F 28.7 °F 27.0 °F 78% 30.25 in 10.0 mi SSW 4.6 mph - N/A   Clear
8:53 AM 44.1 °F - 30.9 °F 60% 30.23 in 10.0 mi Calm Calm - N/A   Clear
9:53 AM 50.0 °F - 28.9 °F 44% 30.22 in 10.0 mi NE 3.5 mph - N/A   Clear
10:53 AM 55.0 °F - 28.0 °F 35% 30.19 in 10.0 mi North 5.8 mph - N/A   Clear
12:53 PM 64.0 °F - 21.0 °F 19% 30.09 in 10.0 mi East 5.8 mph - N/A   Clear
1:53 PM 66.9 °F - 18.0 °F 15% 30.06 in 10.0 mi ESE 5.8 mph - N/A   Clear
2:53 PM 66.9 °F - 16.0 °F 14% 30.04 in 10.0 mi ESE 9.2 mph - N/A   Clear
3:53 PM 66.9 °F - 18.0 °F 15% 30.04 in 10.0 mi ESE 8.1 mph - N/A   Clear
4:53 PM 64.9 °F - 16.0 °F 15% 30.06 in 10.0 mi ESE 3.5 mph - N/A   Clear
5:53 PM 57.9 °F - 18.0 °F 21% 30.08 in 10.0 mi SSE 8.1 mph - N/A   Clear
6:53 PM 53.1 °F - 23.0 °F 31% 30.12 in 10.0 mi SSW 5.8 mph - N/A   Clear
7:53 PM 48.9 °F - 25.0 °F 39% 30.13 in 10.0 mi South 8.1 mph - N/A   Clear
8:53 PM 45.0 °F 40.6 °F 26.1 °F 48% 30.11 in 10.0 mi South 8.1 mph - N/A   Clear
9:53 PM 42.1 °F 40.2 °F 28.0 °F 58% 30.11 in 10.0 mi South 3.5 mph - N/A   Clear
10:53 PM 39.9 °F 36.7 °F 27.0 °F 60% 30.10 in 10.0 mi South 4.6 mph - N/A   Clear
11:53 PM 37.9 °F 32.1 °F 24.1 °F 57% 30.08 in 10.0 mi South 8.1 mph - N/A   Clear